Погода в Верхнедвинске

Погода в Верхнедвинске : погода сейчас, прогноз погоды и архив. Всё, что Вы хотите узнать о погоде в Верхнедвинске!

Хотите узнать прогноз погоды в Верхнедвинске? Тогда Вам сюда: Погода в Верхнедвинске

Поиск расширенной информации на нашем сайте:

Другие новости

Новости СМИ2

Главная страница сайта

Новости сайта

03.07.2017

Напоминаем, что на нашем специализированном сайте Метеоцентр.Азия вы можете получить высокодетализированные автоматические прогнозы погоды по пунктам России, СНГ и мира в авиационном формате (включающие направление и скорость ветра, видимость, явления погоды, количество и форму облачности, нижнюю и верхнюю границу облачности).


Погода в Верхнедвинске - сегодня

Время (UTC), дата Ветер
(°,м/с) 
Видим.   Явления Облачность Т
(°С)
Тd
(°С)
f(%) Тe
(°С)
Pmin
(гПа)
dP
(гПа)
Po
(мм)
O2
(г/м3)
Тmin Tmax R s Состояние
почвы
03 13.10.18 180 (Ю) 2500 м  дымка{туман}  ясно 
+5.8 +5.7 99 +6  1031.4  -0.8  761  299           
06 13.10.18 190 (Ю) 2000 м  в посл. час туман  1/0 средняя 
[Ac trans]
+5.7 +5.7 100 +7  1031.4  761  300  +4.4         
09 13.10.18 220 (ЮЗ) 10 км    1/0 верхняя 
[Ci fib]
+13 +10 82 +15  1031.6  0.6  762  291           
12 13.10.18 190 (Ю) 15000 м    3/0 верхняя 
[Ci fib]
+17.9 +11.3 65 +22  1030.6  -0.7  761  286           
15 13.10.18 200 (Ю) 12000 м    4/0 верхняя 
[Ci fib]
+16.2 +11.1 72 +20  1029.4  -1.2  760  287           
18 13.10.18 220 (ЮЗ) 6000 м  дымка  3/0 верхняя 
[Ci fib]
+11.3 +10 92 +13  1030.2  0.4  761  292    +18.6       
21 13.10.18 тихо ()   3000 м  дымка  1/0 верхняя 
[Ci fib]
+9.4 +8.9 97 +9  1030.4  0.1  761  295           
03 14.10.18 тихо ()   0600 м  туман  3/0 верхняя 
[Ci fib]
+3.4 +3.3 99 +3  1030.7  -0.1  761  302           
09 14.10.18 тихо ()   8000 м  дымка{туман}  6/0 верхняя 
[Ci fib]
+12.9 +10.9 88 +15  1030.5  0.1  761  291           
15 14.10.18 тихо ()   12000 м    ясно 
+16.2 +11 71 +18  1028.2  -0.8  759  287           
18 14.10.18 150 (ЮВ) 4500 м  дымка  ясно 
+9.9 +9.4 97 +11  1028.3  -0.3  759  293    +18.9       
21 14.10.18 тихо ()   3700 м  дымка  ясно 
+7.3 +7 98 +7  1028.6  0.1  759  297           
00 15.10.18 160 (Ю) 3000 м  дымка  ясно 
+7.8 +7.7 99 +9  1028.3  -0.2  759  296           
06 15.10.18 тихо ()   1500 м  в посл. час туман  ясно 
+4.9 +4.9 100 +5  1028.1  0.1  759  300  +2.2         
09 15.10.18 160 (Ю) 10 км    1/0 верхняя 
[Ci fib]
+13.3 +7.3 67 +14  1028  0.4  759  290           
12 15.10.18 170 (Ю) 15000 м    3/0 верхняя 
[Ci fib]
+18.3 +6.7 47 +19  1026.6  -1.1  758  285           
15 15.10.18 170 (Ю) 12000 м    4/0 верхняя 
[Ci fib]
+15.8 +6 52 +17  1026  -0.7  758  288           
18 15.10.18 170 (Ю) 10 км    5/0 верхняя 
[Ci fib]
+9.9 +5.5 74 +11  1026.1  -0.3  757  294    +18.6       
21 15.10.18 180 (Ю) 10 км    4/0 верхняя 
[Ci fib]
+8.9 +5.8 81 +9  1025.7  -0.4  757  295           
00 16.10.18 160 (Ю) 10 км    3/0 верхняя 
[Ci fib]
+6.2 +5 92 +7  1025.7  -0.2  757  297           
03 16.10.18 170 (Ю) 8000 м  дымка  1/0 верхняя 
[Ci fib]
+6.4 +5.2 92 +7  1025.4  -0.3  757  297           
06 16.10.18 180 (Ю) 10 км    6/0 верхняя 
[Ci fib]
+7 +5.4 90 +7  1025.1  -0.2  757  296  +5.1         
09 16.10.18 180 (Ю) 10 км    5/0 верхняя 
[Ci fib]
+14.1 +7.7 65 +15  1024.3  -0.4  756  288           
12 16.10.18 200 (Ю) 12000 м    3/0 верхняя 
[Ci fib]
+18.5 +7 47 +19  1023.6  -0.4  756  284           
15 16.10.18 220 (ЮЗ) 10 км    1/0 верхняя 
[Ci fib]
+16.5 +6.4 51 +17  1023.5  -0.2  756  286           
Время (UTC), дата Ветер
(°,м/с) 
Видим.   Явления Облачность Т
(°С)
Тd
(°С)
f(%) Тe
(°С)
Pmin
(гПа)
dP
(гПа)
Po
(мм)
O2
(г/м3)
Тmin Tmax R s Состояние
почвы

Для получения пояснительной информации подведите курсор к названию столбца.

ПОГОДА в Верхнедвинске - архив

Всё, что Вы хотите узнать о погоде в Верхнедвинске - удобно и подробно!

Выберите нужную дату (начиная с 1 января 2015* года) и нажмите кнопку "Найти".
Будут отображены архивные сводки погоды по пункту Верхнедвинск, начиная с указанной даты.


Отображать данные в формате CSV (для использования в таблицах Excel)


Внимание! Наш архив погоды предназначен исключительно для личного некоммерческого использования в познавательных целях. Если Вам необходимы официальные справки о состоянии погоды (для производственных, юридических, коммерческих и т.п. целей), обращайтесь в органы Росгидромета.

*Примечание: данная дата относится к архиву по метеостанциям СССР (Россия, СНГ, Балтия).
Архив по метеостанциям Зарубежной Европы и Азии (кроме Китая) хранится 10 дней, по другим регионам земного шара (Китай, Африка, Америка, Австралия, Океания) - 1 день.

Верхнедвинск - район местоположения метеостанции


Название, широта, долгота, высота метеостанции:
Верхнедвинск 55.8°ш. 27.9°д. 132 м над ур. моря [Беларусь]

Дополнительная информация

В oтличие oт бoльшинства пoгoдных сайтoв мы публикуем пoдрoбную метеoинфoрмацию в детальнoм прoфессиoнальнoм фoрмате.

Характеристики температуры и влажнoсти вoздуха измеряются на высoте 2 м в тени вдали oт зданий и деревьев.
Скoрoсть ветра измеряется на высoте 10 м (на урoвне рoста челoвека скoрoсть ветра ниже в 1.5-2 раза). Если метеoстанция нахoдится в гoрoде или в лесу, тo скoрoсть ветра занижена на 2-4 м/с пo сравнению с oткрытым местoм. Скoрoсть ветра над акватoриями крупных рек и oзёр, а также на вершинах хoлмoв на 2-5 м/с выше, чем в oбычных услoвиях.
Атмoсфернoе давление в разных тoчках местнoсти мoжет значительнo oтличаться oт давления на метеoстанции, в зависимoсти oт услoвий рельефа (при пoдъёме на 10 м давление пoнижается примернo на 1 мм рт.ст.).